Location: Lisboa
(38.7223°N, 9.1393°W)
Time: 20:05:38
(UTC+01:00)

TIGRISAT - Visible Passes

Search period start: 26 May 2024 00:00
Search period end: 05 June 2024 00:00
Orbit: 594 x 672 km, 97.7° (Epoch: 26 May)

Date Brightness Start Highest point End Pass type
(mag) Time Alt. Az. Time Alt. Az. Time Alt. Az.
26 May ? 04:43:20 10° ESE 04:46:38 23° ENE 04:49:58 10° NNE visible
27 May ? 05:03:52 10° SE 05:07:45 39° ENE 05:11:43 10° N visible
28 May ? 05:24:47 10° SSE 05:28:56 70° ENE 05:33:10 10° N visible
29 May ? 04:13:31 10° ENE 04:14:23 11° ENE 04:15:17 10° NE visible
30 May ? 04:32:33 10° ESE 04:35:23 18° ENE 04:38:16 10° NNE visible
31 May ? 04:52:48 10° SE 04:56:28 30° ENE 05:00:11 10° N visible
01 Jun ? 05:13:30 10° SSE 05:17:35 52° ENE 05:21:45 10° N visible
02 Jun ? 05:34:33 10° SSE 05:38:46 87° WSW 05:43:05 10° NNW visible
03 Jun ? 04:21:53 10° E 04:24:06 14° ENE 04:26:19 10° NNE visible
04 Jun ? 04:41:45 10° ESE 04:45:06 23° ENE 04:48:30 10° NNE visible
